Location: Aurora Center
(43.5271°N, 98.5894°W)
Time: 02:16:51
(UTC-05:00)

BlueWalker 3 - Pass Details

Date: 23 June 2024
Orbit: 480 x 492 km, 53.2° (Epoch: 15 July)

Event Time Altitude Azimuth Distance (km) Brightness Sun altitude
Rises 03:54:27 0° 302° (WNW) 2,538 5.5 -16.0°
Reaches altitude 10° 03:56:40 10° 296° (WNW) 1,656 4.5 -15.7°
Maximum altitude 04:00:15 47° 222° (SW) 641 2.0 -15.4°
Drops below altitude 10° 04:03:50 10° 148° (SSE) 1,649 4.3 -15.0°
Sets 04:06:02 0° 142° (SE) 2,526 5.3 -14.8°
